Theta_e
305 305 305 305 305 305 306 306 306 305 303 304 301 302 296 294 291 303 306 307 303 295 288 291 288 287 290 294 293 294 292 291 292 291 294 293 295 294 293 294 293 293 292 292 292 293 291 292 291 293 295 294 296 298 299 300 298 299 297 298 300 298 295 292 291 295 297 299 299 301 300 300 297 297 299 297 295 296 295 293 296 292 293 291 292 288 294
304 304 304 305 305 305 306 306 306 306 304 303 302 299 295 295 295 298 303 305 301 292 283 284 286 288 291 290 290 294 292 291 290 291 294 293 290 294 294 295 297 292 295 294 291 294 288 293 292 291 295 294 298 299 299 300 297 297 297 295 300 291 294 293 288 288 291 293 295 295 298 298 296 296 297 298 298 298 298 298 300 291 293 294 290 284 292
304 304 304 305 305 305 305 306 306 305 305 305 301 295 297 296 297 298 300 302 298 286 291 287 286 286 286 286 285 289 290 293 293 294 293 296 296 295 294 296 297 295 296 293 295 295 292 290 294 294 294 295 296 298 299 300 299 300 301 302 301 295 294 293 286 283 280 280 282 285 288 292 296 297 297 298 297 297 296 290 293 288 293 295 291 290 302
303 303 304 304 304 304 305 305 305 305 305 304 301 298 295 292 285 293 294 297 295 294 295 292 288 286 286 285 288 290 289 294 296 296 294 296 296 297 297 298 298 294 294 293 292 292 295 293 291 293 293 294 294 297 299 299 300 302 306 304 301 295 298 296 294 290 288 291 293 297 297 295 291 294 296 296 297 298 298 297 291 288 292 291 295 296 302
303 303 303 304 304 304 304 304 304 304 305 305 301 298 296 295 287 287 285 292 292 289 292 290 290 285 290 284 289 288 291 292 291 296 290 298 297 297 297 296 295 293 293 292 291 293 293 295 294 293 294 294 295 297 298 299 301 307 302 304 299 296 292 295 297 297 296 296 295 297 297 294 294 294 294 296 296 297 296 291 290 297 293 289 297 298 298
302 302 302 302 303 303 304 304 304 304 304 304 302 294 297 288 291 293 294 288 286 286 288 291 289 290 290 287 291 290 291 292 288 291 295 295 298 295 297 297 297 294 293 293 290 292 292 293 291 295 295 294 294 293 297 297 303 301 299 302 299 295 289 295 297 295 296 298 298 297 296 296 295 295 296 295 296 296 294 295 297 298 292 290 299 301 298
302 302 302 303 303 303 303 304 304 304 303 304 301 292 298 296 296 296 298 289 292 290 292 294 291 290 291 288 291 289 290 290 292 292 294 297 297 298 290 294 296 295 296 295 292 293 289 288 295 295 294 294 293 292 293 296 299 298 299 299 301 297 292 297 295 295 295 297 297 298 296 295 296 296 296 296 296 296 297 297 298 298 298 299 299 301 300
302 302 302 302 302 303 303 304 304 304 303 305 299 296 292 291 290 290 295 294 293 295 296 294 293 292 294 288 291 291 291 291 289 293 295 290 294 297 295 296 298 298 296 295 293 295 296 295 292 297 296 295 296 293 294 293 297 298 297 298 302 297 291 296 296 293 294 297 297 297 297 297 295 296 297 297 297 297 297 298 299 299 299 301 300 300 299
301 301 302 302 302 303 303 304 304 303 303 301 297 295 299 298 299 297 290 289 294 296 295 294 293 291 293 291 292 293 293 292 295 295 297 295 293 294 293 298 299 299 298 297 296 298 298 298 299 300 299 293 298 295 296 297 294 296 297 298 301 298 294 297 296 289 291 297 296 296 297 296 295 296 297 297 297 296 297 295 300 300 298 300 299 297 297
301 301 301 302 302 302 303 303 303 303 303 299 298 294 301 300 303 301 295 288 293 293 297 296 295 288 293 293 294 293 293 294 296 289 296 295 295 296 297 300 301 297 297 297 302 305 304 304 305 301 301 302 300 301 299 298 296 296 297 298 296 294 295 291 291 288 288 296 297 296 296 295 292 292 297 299 299 298 300 302 303 302 302 297 294 296 302
300 300 301 301 302 302 303 303 303 303 303 297 296 296 298 295 295 296 295 288 292 296 295 295 294 294 296 296 295 297 296 295 294 290 289 294 298 299 299 300 301 298 299 302 307 308 307 308 307 305 303 302 300 300 299 299 299 298 298 297 297 295 296 293 295 287 288 296 296 297 291 284 287 304 302 306 301 300 299 299 302 304 303 301 304 302 305
300 300 301 301 301 302 302 303 303 303 302 302 301 297 300 301 299 297 292 288 291 298 296 293 295 295 295 296 296 295 295 294 294 298 294 295 299 300 299 301 305 294 304 309 309 308 308 308 305 304 303 301 300 300 299 298 299 300 301 297 296 295 294 292 297 289 288 295 294 288 282 285 303 303 304 303 305 304 302 302 304 303 304 308 306 310 312
300 300 300 301 301 301 302 302 303 303 303 303 302 297 302 303 298 295 294 290 290 294 293 295 299 298 298 297 297 298 297 296 297 298 299 298 299 302 302 302 301 302 307 307 308 307 302 299 298 299 298 299 300 299 299 299 299 302 301 300 299 293 292 293 292 292 292 291 288 280 283 300 302 303 302 304 303 303 302 301 304 306 306 307 305 308 311
299 299 300 300 301 301 302 302 302 303 303 303 301 302 303 303 298 297 294 292 293 299 298 298 299 298 298 298 297 299 300 301 301 301 300 302 300 301 303 304 304 307 308 308 307 305 298 298 292 294 294 296 297 296 300 301 300 299 301 300 300 299 296 295 290 295 287 289 288 287 296 296 301 300 302 300 301 301 298 291 297 306 306 306 305 309 310
299 299 299 300 300 301 301 302 302 302 303 303 303 303 303 304 303 299 299 296 291 297 300 292 296 298 300 299 300 299 298 301 300 299 301 301 303 302 303 305 308 307 309 308 303 303 297 294 290 289 291 289 285 288 298 295 300 303 303 302 302 301 295 296 291 290 292 289 287 288 287 284 291 302 310 308 310 309 308 303 298 309 308 308 307 309 311
299 299 299 299 300 301 301 301 302 302 302 302 303 302 304 305 305 303 299 296 293 291 296 303 302 301 301 302 301 300 298 298 299 303 302 301 299 302 305 307 308 309 306 304 303 298 295 291 289 289 286 288 294 293 291 298 296 301 302 303 303 303 303 298 292 291 290 288 286 286 284 287 296 307 307 309 308 310 309 298 293 308 309 308 309 309 312
298 299 299 299 300 300 301 301 301 302 302 302 301 302 303 307 304 302 299 298 297 293 302 304 304 304 300 300 302 300 302 297 300 295 294 296 298 298 302 306 310 308 304 304 302 297 294 292 295 294 292 297 292 290 297 295 294 294 299 300 298 297 295 295 292 289 290 288 286 285 289 289 302 307 307 307 309 309 306 290 290 309 310 309 310 310 311
298 298 299 299 299 300 300 301 301 302 302 303 302 302 304 307 306 304 302 299 296 298 304 305 302 301 299 300 299 303 304 303 303 303 297 298 300 297 297 302 302 306 306 300 300 295 292 292 289 289 290 299 300 299 288 296 292 292 292 294 292 292 292 293 289 290 290 288 289 290 291 300 306 306 307 307 309 306 292 287 294 310 311 310 311 312 313
298 298 298 299 299 300 300 301 301 301 302 302 302 304 305 306 306 306 302 300 300 295 302 306 306 305 307 307 306 304 303 302 304 297 295 296 300 302 299 300 303 298 303 298 300 294 292 292 298 297 292 293 299 289 297 292 292 299 297 291 292 292 292 291 292 290 289 291 288 289 291 303 306 308 308 308 304 291 291 305 306 310 311 311 312 313 314
298 298 298 299 299 299 300 301 301 301 302 302 301 299 303 306 306 304 301 298 300 299 303 304 305 302 305 303 302 302 304 304 303 301 296 292 301 300 298 296 303 304 300 303 293 297 294 291 295 297 295 295 297 300 295 294 300 296 295 299 293 293 289 289 290 291 293 291 289 287 285 294 308 307 305 306 296 295 306 310 310 310 312 311 312 313 314
298 298 298 298 299 299 300 301 301 301 301 302 301 299 300 307 305 306 305 302 297 294 300 308 306 305 305 305 306 305 303 301 302 300 301 300 302 299 291 292 299 300 295 296 292 293 295 293 296 295 299 299 299 298 292 293 296 301 300 299 298 301 290 290 291 295 289 289 286 287 295 305 309 307 297 304 307 307 310 311 309 310 312 312 312 313 314
298 298 298 298 299 299 300 300 301 301 301 301 301 301 300 305 305 306 305 303 298 297 302 307 307 306 308 309 310 310 307 306 308 308 304 299 307 302 301 303 302 302 303 304 300 297 301 300 301 295 294 296 300 294 298 291 290 299 302 300 291 302 298 300 292 299 293 290 294 304 304 307 309 310 305 308 309 309 309 311 311 310 311 313 312 313 314
297 298 298 298 299 299 299 300 300 300 301 301 301 300 297 301 304 306 305 300 303 304 306 307 309 309 310 311 310 310 312 313 311 311 310 304 299 304 302 302 301 305 307 306 300 300 301 301 296 302 298 299 296 295 297 296 293 298 294 302 302 303 304 306 303 300 304 303 304 306 305 306 309 307 307 307 308 308 309 310 311 311 313 313 312 314 313
297 297 298 298 298 299 299 300 300 300 300 301 300 299 299 302 303 304 303 302 298 297 305 308 306 296 300 300 304 311 310 310 311 312 315 313 299 298 306 305 304 307 307 308 307 302 301 300 301 302 294 301 300 295 292 292 292 300 298 297 301 304 303 302 298 303 297 292 305 303 306 306 307 307 308 308 307 309 310 310 311 312 313 313 314 314 314
297 297 298 298 298 299 299 300 300 300 300 300 301 302 302 302 305 304 301 295 297 298 293 296 299 302 304 306 307 306 307 308 312 312 313 312 310 302 301 308 308 304 304 308 309 306 300 295 299 298 292 303 303 294 301 295 296 301 294 299 300 299 305 301 302 302 296 297 303 305 305 306 307 307 307 306 308 308 309 311 312 312 313 313 314 314 313
297 297 297 298 298 299 299 299 300 300 300 300 301 300 300 300 304 304 303 305 305 303 293 293 299 310 307 305 303 303 305 306 306 307 310 311 311 311 311 312 311 311 308 308 308 302 299 297 298 297 296 296 305 298 297 302 300 303 299 300 304 303 302 295 302 299 302 304 304 304 306 306 306 306 308 309 310 309 308 309 310 311 310 311 312 313 312
297 297 297 298 298 299 299 299 299 300 300 300 300 302 302 303 305 303 303 305 301 295 297 294 299 303 305 303 304 306 306 306 308 308 309 309 309 310 311 309 307 308 307 306 306 300 299 298 297 296 301 299 303 303 303 300 300 295 296 302 304 302 298 302 299 295 295 297 302 305 297 296 306 307 308 309 309 309 309 309 309 309 310 310 309 309 311
297 297 297 298 298 299 299 299 300 300 300 300 301 303 304 303 305 305 307 306 303 294 294 294 297 301 306 303 305 306 305 305 306 307 306 306 307 307 308 308 309 306 306 303 297 297 297 296 297 297 297 303 301 296 303 303 302 300 300 302 304 300 304 302 296 296 295 303 303 307 308 307 307 308 309 310 310 309 309 308 309 310 310 310 309 308 308
296 297 297 298 298 299 299 299 300 300 300 300 302 302 305 306 307 307 306 308 306 302 298 298 301 303 295 299 305 305 306 306 307 306 306 304 305 307 308 306 307 306 306 302 299 299 298 298 298 300 300 305 303 298 299 293 294 292 299 305 305 307 307 306 306 305 304 305 305 307 306 305 306 306 308 309 310 309 309 309 310 310 310 310 309 309 308
297 297 298 298 298 299 299 300 300 300 300 301 300 300 299 302 307 308 308 308 308 305 296 293 291 294 306 305 304 304 303 304 306 307 305 305 306 306 304 306 306 306 306 301 300 296 299 298 297 303 303 305 302 298 294 296 294 297 303 304 306 305 305 307 307 305 304 305 307 307 306 306 306 307 307 308 308 308 308 308 309 308 308 309 309 309 309
297 297 298 298 299 299 299 299 300 300 299 299 298 292 291 291 302 308 305 307 309 304 298 296 293 298 298 306 304 302 302 302 305 305 306 306 306 305 305 306 306 305 300 300 299 298 298 297 297 299 302 302 298 297 296 295 292 296 302 304 304 304 304 305 306 306 306 306 306 306 305 305 306 305 305 306 307 307 307 307 307 306 308 308 308 309 308
297 297 298 298 298 299 299 299 300 300 301 299 296 297 301 301 304 306 305 305 308 304 297 293 292 293 293 297 304 305 302 303 303 305 305 306 305 305 305 304 303 305 300 299 298 298 297 296 296 302 302 301 297 298 299 296 292 296 303 303 304 305 305 305 305 305 306 306 305 304 304 304 305 306 305 306 306 307 307 307 307 307 304 307 308 309 309
297 297 298 298 298 299 299 300 300 300 299 301 302 301 301 301 302 303 304 306 306 303 303 295 290 292 291 297 303 304 302 305 304 303 302 304 303 304 301 304 305 303 303 299 297 295 299 296 296 297 301 303 295 296 298 293 297 303 303 304 303 304 304 305 305 306 305 306 307 304 303 304 305 304 306 306 306 306 306 306 306 306 306 306 306 306 307
297 298 298 298 298 299 300 300 300 299 299 298 297 302 306 304 305 302 308 307 304 305 300 294 290 291 291 301 296 303 302 298 299 300 294 302 303 304 297 302 303 295 299 298 298 297 298 296 296 296 299 295 298 294 290 297 302 302 302 303 304 304 305 304 304 304 304 305 306 305 305 307 306 305 305 305 305 306 306 306 306 305 305 305 304 305 306
298 298 298 298 299 299 299 299 302 301 301 301 302 305 305 302 302 302 303 305 299 294 293 293 294 290 290 291 290 297 302 301 297 298 294 299 303 299 300 295 297 294 296 303 296 297 295 295 299 294 293 299 293 290 291 297 300 302 303 302 303 304 303 302 303 304 304 305 305 305 306 305 304 303 303 304 304 304 304 304 305 305 303 304 304 304 304
298 298 298 299 299 299 302 301 304 301 299 299 302 302 301 302 303 308 308 307 304 298 292 292 292 291 291 287 288 294 302 299 300 301 299 296 299 300 300 296 292 296 301 297 293 298 293 300 295 291 295 290 289 293 297 300 300 302 303 303 304 304 304 304 304 304 304 304 305 305 304 304 304 303 304 303 304 304 304 304 304 305 304 304 304 304 304
298 298 299 299 300 303 300 297 301 303 300 300 300 300 300 301 308 308 306 303 305 305 298 294 291 293 295 292 294 294 300 291 298 296 299 294 292 294 296 293 291 293 294 294 294 293 297 302 294 291 291 289 291 300 300 301 301 301 302 305 305 306 305 305 305 304 303 303 304 304 304 303 303 303 303 302 303 304 303 303 304 303 303 303 303 303 304
298 298 299 299 300 294 293 297 300 300 299 299 299 301 302 302 297 297 298 296 301 301 296 298 291 297 300 295 289 302 297 294 299 293 293 295 292 292 294 292 292 292 288 291 294 299 295 294 292 290 289 296 298 298 300 302 303 304 305 305 305 305 304 305 304 303 302 301 301 302 302 302 302 302 302 302 303 303 303 304 305 306 305 304 304 304 303
297 299 299 298 297 294 294 298 302 300 300 301 302 297 294 296 294 290 292 295 294 293 297 296 293 298 297 295 296 303 297 292 292 294 290 297 292 288 292 288 290 292 289 289 292 298 290 292 291 291 290 294 296 301 301 303 303 303 304 305 306 305 305 304 305 304 303 303 303 304 303 302 301 301 303 302 303 304 304 304 304 304 304 304 303 303 303
297 293 291 292 292 294 299 302 300 299 301 295 297 295 290 293 290 288 293 290 291 293 296 291 298 298 299 295 294 295 302 295 291 291 293 294 298 291 291 291 292 289 285 286 289 298 289 286 289 288 288 293 295 301 302 302 302 303 304 305 306 305 305 305 305 307 306 306 307 306 306 305 305 304 303 303 303 303 303 303 303 304 304 303 303 303 303
294 293 293 290 295 296 298 299 300 300 295 294 292 292 290 287 292 292 290 288 289 290 297 298 298 296 298 298 297 293 302 302 301 299 295 291 297 296 290 287 291 287 285 285 291 293 291 289 288 287 288 294 297 301 302 302 302 303 304 305 305 305 305 305 306 306 305 305 305 305 306 306 305 304 304 304 304 304 303 303 303 303 303 302 301 302 303
294 292 294 296 296 297 297 297 295 292 292 294 289 287 289 289 291 290 291 287 287 291 294 295 290 294 294 297 298 300 298 303 300 296 294 289 292 290 288 290 290 286 283 290 293 291 290 285 286 287 293 296 299 301 302 302 302 303 304 305 305 305 305 305 305 305 305 305 305 305 305 306 305 304 304 304 304 304 303 303 302 302 302 302 302 302 301
298 297 296 294 293 292 293 291 293 292 286 286 285 284 287 285 287 287 288 291 294 293 294 298 297 298 298 299 297 300 297 301 295 294 292 289 292 291 289 287 286 283 288 294 290 288 286 285 285 289 295 297 298 300 302 304 304 304 305 306 306 306 305 305 305 305 305 305 306 305 305 306 306 305 305 305 305 304 304 303 302 302 302 302 301 300 300
298 297 293 290 289 290 292 284 292 289 286 287 284 280 284 284 286 288 287 289 292 291 295 293 294 294 291 296 295 293 295 297 295 295 293 292 290 287 286 285 286 289 294 289 288 285 285 287 289 292 295 297 297 300 302 303 304 304 303 304 305 305 305 306 305 304 304 305 306 305 305 306 306 305 305 305 305 303 303 303 303 303 302 302 301 300 301
292 290 290 289 286 289 287 280 291 287 282 285 287 286 286 284 287 289 288 291 294 292 295 295 295 295 292 298 295 296 294 292 295 291 287 290 288 289 286 286 290 290 287 285 286 286 286 286 293 295 295 296 298 299 303 304 304 303 304 304 304 305 305 304 304 304 304 305 305 305 304 305 305 304 304 304 305 305 303 302 302 301 301 301 301 300 300
288 287 288 283 277 284 286 283 285 283 287 288 288 290 290 291 291 290 293 295 293 294 293 294 294 295 292 296 292 292 294 294 291 291 292 291 287 285 289 292 290 286 285 286 284 283 284 289 292 294 296 297 298 300 302 304 304 305 304 303 304 304 305 304 304 304 305 305 305 304 304 304 304 304 304 304 304 304 304 304 303 302 301 301 300 300 300
289 289 289 287 282 286 288 283 285 287 289 290 291 291 291 292 292 293 293 294 293 294 294 296 295 294 293 293 292 293 293 294 289 291 291 287 286 288 290 288 283 285 282 282 283 284 287 292 294 297 298 298 300 300 302 303 304 304 304 304 304 304 305 304 304 304 305 305 305 304 304 304 304 304 304 303 304 304 303 304 304 303 302 301 301 302 301
286 289 288 282 280 286 284 287 291 291 291 292 291 292 292 293 293 292 294 295 294 295 294 295 293 294 292 296 294 291 292 293 289 289 291 289 290 287 285 284 284 286 286 285 285 290 292 295 296 298 299 299 301 301 302 303 304 304 304 304 304 304 304 303 303 304 305 304 304 304 304 304 304 304 303 303 303 304 304 304 304 303 303 303 302 301 301
289 288 286 285 287 288 288 291 291 289 290 292 292 292 292 292 291 293 294 295 294 294 295 294 292 292 289 293 291 290 287 291 286 287 289 288 285 281 282 281 283 282 287 289 290 293 294 297 298 299 300 300 301 303 303 304 304 304 304 304 304 304 304 303 304 305 305 305 304 304 304 304 304 304 303 303 303 303 304 304 304 303 303 302 301 300 300
287 287 287 287 287 288 291 291 290 288 290 291 291 291 291 291 291 293 295 293 294 294 295 294 293 290 291 290 287 288 288 291 289 289 287 285 285 286 285 282 284 285 288 292 293 295 297 299 300 300 301 301 300 302 303 304 302 304 305 305 305 305 304 304 304 305 304 304 304 304 304 304 304 303 303 303 303 304 304 303 303 303 303 303 302 301 300
290 288 288 292 287 287 289 285 285 286 288 289 290 290 290 290 291 291 294 293 294 293 292 289 290 289 289 287 286 283 286 291 288 287 286 286 289 287 285 284 287 291 293 296 297 298 298 299 299 299 300 301 302 301 303 304 304 305 305 305 305 305 304 305 304 304 304 305 305 298 304 304 304 304 305 305 304 303 303 302 302 303 303 303 302 302 301
286 284 285 288 290 290 290 290 289 289 289 290 290 292 291 290 291 292 295 293 293 290 288 290 289 288 286 284 286 289 290 289 286 287 285 288 290 287 287 289 293 295 296 296 298 298 299 301 302 300 302 301 300 302 302 303 304 305 305 305 305 304 304 304 304 304 304 304 305 305 304 305 305 305 305 304 304 303 302 301 301 303 302 303 303 303 303
Wind_Speed
21 22 21 22 22 22 22 20 20 10 8 5 4 2 3 2 2 5 5 8 8 4 5 3 4 4 5 6 8 7 7 6 5 5 5 5 6 4 4 2 4 3 8 12 11 11 9 12 10 9 12 10 5 19 18 17 18 13 9 10 7 3 4 9 10 9 12 5 3 5 6 10 15 15 13 13 13 13 11 9 7 9 11 9 5 4 3
21 21 21 21 22 23 22 21 20 15 5 6 6 4 2 2 2 2 4 6 4 4 5 3 2 5 5 5 9 7 7 5 5 5 3 3 2 4 2 5 4 5 6 11 12 11 7 8 10 10 11 10 8 21 22 22 15 15 10 8 10 5 7 9 9 8 9 8 8 9 11 9 10 11 13 13 12 14 13 7 1 4 11 10 10 10 5
21 21 21 20 20 19 20 21 20 18 10 5 4 4 1 3 2 2 3 4 4 5 2 4 5 4 5 7 7 6 3 6 8 5 4 2 2 2 4 1 2 6 9 11 10 10 5 8 8 8 11 7 6 14 23 23 16 15 11 7 10 5 7 9 11 12 13 13 14 13 14 14 9 10 13 15 16 16 11 8 8 7 6 11 9 7 5
21 21 21 21 21 19 17 16 18 17 14 6 4 3 3 2 3 3 3 4 4 6 7 7 6 6 5 4 3 3 3 2 4 4 4 6 4 4 4 3 4 9 12 11 11 8 9 8 6 9 10 8 5 11 21 23 17 17 10 10 10 3 5 9 8 9 9 8 7 6 10 11 14 14 14 15 15 15 12 9 10 10 7 9 9 9 6
21 21 21 21 21 20 21 18 16 17 16 11 4 4 3 1 3 1 1 1 5 6 4 4 4 2 4 4 5 5 7 3 1 2 0 3 2 2 4 3 6 11 13 11 11 10 10 7 11 11 13 8 7 14 17 19 18 13 11 12 7 6 6 11 6 4 5 1 6 8 14 15 16 15 16 15 16 17 15 12 10 8 8 8 8 8 7
22 21 20 20 20 21 21 20 19 18 19 12 4 4 2 3 2 2 3 3 2 2 3 7 7 8 5 4 4 6 7 7 5 2 3 4 4 3 5 4 6 13 13 13 7 12 11 11 8 13 11 10 12 12 14 15 12 14 12 14 9 9 6 7 9 4 2 4 5 5 8 12 14 16 15 18 17 18 19 16 15 11 8 6 9 10 11
21 21 20 20 20 21 21 22 21 20 20 8 3 3 2 3 4 2 1 3 4 5 9 9 7 8 7 3 3 5 6 7 6 2 2 2 4 2 3 7 9 12 14 12 9 11 10 9 11 9 12 11 13 11 12 11 12 14 12 13 8 7 8 8 11 7 4 3 4 3 5 7 8 12 16 16 17 18 18 17 17 15 10 10 5 7 9
21 21 21 21 21 20 20 22 21 19 22 9 3 3 3 4 4 3 5 5 8 7 3 4 4 3 3 1 4 4 6 8 6 1 1 1 3 4 5 4 6 10 12 13 11 10 8 10 9 10 12 12 9 11 9 9 12 14 12 11 5 8 4 5 9 8 7 5 4 2 2 2 7 10 12 13 15 17 18 16 16 16 15 6 7 8 9
22 22 21 21 20 20 20 21 21 19 17 4 4 4 2 5 4 5 6 7 4 5 4 3 3 2 3 4 5 5 6 7 7 4 2 2 3 2 2 2 4 9 10 9 13 13 7 12 11 10 11 9 11 8 7 12 13 15 11 10 8 10 2 5 7 5 7 7 5 4 3 5 8 8 9 10 10 12 15 14 11 12 12 12 12 11 10
22 22 22 21 20 21 21 20 20 17 16 6 4 3 2 5 4 4 3 3 4 5 4 4 1 4 4 4 6 4 5 6 6 2 4 5 6 6 7 7 2 10 10 6 3 2 1 2 3 8 10 7 9 3 9 14 13 11 10 10 10 12 6 5 7 7 6 6 5 5 5 6 8 10 11 11 11 13 9 9 9 15 14 12 10 11 10
22 21 22 21 21 20 20 20 19 18 12 9 7 5 5 3 5 4 3 3 1 2 4 4 5 3 5 5 6 4 4 5 5 2 1 3 5 4 5 6 1 8 6 4 4 4 3 2 4 2 3 5 8 4 8 14 15 13 10 9 8 13 10 6 8 7 6 7 5 3 6 9 6 3 5 3 9 12 12 12 11 12 13 9 9 9 8
21 21 21 21 21 20 20 20 20 19 14 10 8 6 4 4 5 4 2 3 4 5 3 5 5 5 6 6 6 6 6 4 4 3 4 4 7 6 6 5 3 6 4 1 2 5 5 6 5 6 5 6 6 5 6 10 12 12 12 12 9 11 10 6 7 6 6 6 5 6 11 7 4 2 2 2 4 4 12 8 9 13 14 4 3 5 11
21 21 21 21 21 21 21 21 20 19 18 10 8 7 5 4 4 3 4 4 4 7 6 6 5 6 6 7 6 5 4 7 5 6 5 4 4 1 2 5 7 5 3 1 4 3 7 12 11 10 10 8 7 6 5 6 9 7 10 14 11 8 9 5 4 6 2 4 7 9 7 4 4 3 2 3 1 1 1 6 8 9 13 12 11 7 7
21 21 21 21 21 21 21 21 21 21 19 16 9 8 6 5 4 3 2 4 5 6 6 2 8 9 8 7 6 6 5 3 0 2 2 3 3 5 6 6 5 3 3 2 4 4 10 9 9 10 9 9 8 7 4 4 3 9 10 9 11 13 10 7 6 6 6 6 8 8 5 2 6 2 6 9 6 9 10 7 11 16 14 13 11 8 8
21 21 22 22 21 21 21 21 20 21 20 20 9 6 6 5 4 4 4 3 5 5 8 7 9 9 8 7 6 5 4 5 4 4 3 4 1 6 6 6 3 2 3 4 4 4 5 5 8 8 8 8 8 6 7 5 3 0 5 8 7 10 12 9 9 4 7 6 8 8 7 9 6 5 4 10 2 4 4 3 3 10 13 13 12 11 12
21 21 21 22 22 21 21 21 20 20 20 21 9 7 4 5 5 4 4 3 5 5 8 8 8 8 8 6 6 7 5 4 4 0 5 7 10 8 7 8 4 3 3 3 1 1 2 6 7 9 7 6 2 8 5 8 6 4 4 6 7 4 6 7 10 4 7 8 8 8 7 5 1 7 6 9 3 3 3 3 7 10 15 16 14 13 14
21 21 21 21 21 21 21 20 21 20 20 21 11 7 4 7 5 4 4 3 2 3 7 7 7 6 4 7 6 7 8 4 7 3 3 6 8 8 7 8 1 2 4 3 1 2 4 5 5 6 4 4 8 5 10 7 7 6 6 7 10 10 7 5 8 6 7 8 9 9 5 3 5 7 8 9 6 4 4 5 5 8 15 16 15 15 17
21 21 21 21 21 21 21 20 20 21 20 20 13 8 4 5 6 5 4 4 5 4 2 5 9 7 8 6 6 6 4 3 3 1 4 2 2 5 8 8 2 4 5 1 1 2 3 3 4 5 5 3 2 3 5 6 8 8 9 11 10 9 7 8 10 9 7 10 8 6 4 4 5 7 9 9 7 4 6 8 1 3 9 13 14 14 15
21 21 21 21 21 21 21 20 20 21 21 21 15 7 1 5 6 4 4 4 4 3 5 6 4 5 5 5 3 4 3 3 5 3 3 1 3 5 7 8 7 1 3 1 0 2 2 2 1 1 3 3 3 2 4 5 5 4 9 9 8 9 6 6 8 10 9 8 10 8 4 5 7 7 9 8 6 5 7 2 2 1 8 8 10 11 13
20 21 20 20 21 20 20 20 20 20 20 21 14 8 8 5 4 5 5 6 4 6 8 5 4 7 6 7 5 4 3 1 4 5 6 4 2 5 4 2 4 4 1 1 2 2 0 2 2 0 1 5 3 2 2 2 1 4 6 6 6 9 7 9 9 6 6 4 8 7 11 3 11 13 6 1 3 1 3 2 3 2 5 10 8 9 11
20 20 20 20 20 20 20 20 20 20 20 20 16 8 7 2 5 5 3 5 5 5 0 3 4 7 7 7 6 7 7 5 6 6 5 2 2 1 1 2 4 3 3 2 2 1 1 1 2 1 2 3 4 3 1 3 6 1 2 2 2 4 7 6 6 8 7 7 8 5 1 6 13 12 2 8 1 4 3 2 3 2 4 8 7 8 10
20 20 20 20 20 20 20 20 20 20 20 20 18 8 6 3 6 4 4 4 5 5 5 9 8 10 11 8 8 7 8 9 7 5 5 2 4 2 2 2 4 4 4 3 2 2 2 2 0 1 2 2 1 1 1 3 4 5 2 1 4 4 3 3 4 7 7 4 2 5 3 6 10 2 5 5 3 4 4 4 3 3 4 6 5 8 10
20 20 21 20 20 20 20 20 20 20 20 20 16 8 9 9 6 6 5 6 6 9 8 8 7 8 9 8 8 6 7 6 6 5 5 4 1 1 3 4 5 5 2 3 5 4 3 2 0 2 1 1 0 2 3 4 0 4 3 4 3 3 1 1 4 1 0 2 2 1 2 5 8 4 5 4 2 1 3 3 0 1 3 6 5 8 10
20 20 20 20 20 20 20 19 20 19 20 19 15 10 9 7 8 7 5 6 4 5 4 5 3 3 8 9 6 2 3 4 6 6 3 5 3 1 3 3 5 2 1 4 3 5 3 2 3 2 2 2 2 3 3 3 3 1 2 3 4 3 2 3 5 2 2 3 5 2 3 2 5 6 4 1 0 1 2 1 2 1 3 6 5 8 11
20 20 21 20 21 20 20 20 20 20 20 20 17 10 8 7 4 3 5 3 2 3 3 1 1 4 5 7 4 2 2 3 2 4 5 7 7 4 6 5 4 4 5 5 2 4 1 1 3 3 2 3 3 1 3 3 3 1 4 2 4 5 5 5 5 3 6 1 4 2 1 1 2 5 6 5 3 3 2 1 1 1 3 5 5 7 9
20 20 20 21 21 21 20 20 20 20 20 21 17 10 7 6 4 5 5 6 5 3 3 3 3 1 2 6 3 4 1 3 4 5 7 7 7 7 7 3 2 2 3 2 3 3 2 2 2 2 2 1 1 2 1 4 2 0 4 2 5 6 5 3 3 5 5 1 3 1 2 5 7 8 8 5 3 4 3 2 2 3 5 6 6 7 9
20 20 21 20 20 20 20 20 20 20 21 21 14 9 8 7 5 6 5 5 6 2 2 3 6 8 7 9 1 4 2 2 2 3 4 6 6 6 5 5 5 3 3 2 1 2 2 2 2 1 2 2 1 2 2 2 2 1 2 3 4 4 6 3 2 4 5 5 2 5 3 2 5 6 8 9 6 3 3 4 5 5 6 7 8 8 8
21 21 21 21 21 20 20 20 20 20 21 22 14 9 8 7 5 5 5 5 4 3 5 6 7 10 11 5 2 5 2 2 3 4 3 2 4 4 5 4 4 3 3 3 2 3 3 3 1 2 0 2 3 2 2 1 2 4 6 4 6 6 2 4 4 4 1 5 4 2 4 2 5 3 3 6 7 6 6 6 5 6 6 7 9 10 10
21 21 21 22 21 20 20 20 19 20 21 18 10 10 5 3 3 3 3 2 4 5 5 6 9 7 4 6 10 2 2 3 3 4 3 2 2 2 2 1 2 2 2 3 2 2 1 1 1 1 0 2 4 2 4 3 3 2 2 5 5 2 2 4 5 3 3 3 5 2 2 2 4 2 3 5 4 5 5 4 4 5 6 8 8 10 11
22 22 22 22 22 20 21 19 20 19 18 10 7 4 3 3 3 3 3 2 4 4 3 4 5 2 5 4 4 5 5 5 3 2 5 4 3 1 1 1 0 1 2 2 1 1 1 1 1 2 1 1 3 0 2 1 3 1 4 2 2 3 1 0 2 4 3 5 3 2 2 3 3 2 2 3 2 1 2 3 4 5 5 6 8 8 9
23 23 23 23 22 21 20 19 19 17 14 6 4 2 3 2 4 3 3 5 4 4 3 2 5 4 3 1 2 6 8 6 3 1 0 1 1 1 2 1 1 2 1 1 1 2 1 1 1 2 1 1 2 2 3 3 3 2 4 2 3 4 1 1 1 1 2 2 3 3 3 2 2 3 3 3 4 2 2 3 4 3 4 6 7 7 8
23 24 24 23 22 21 21 20 19 16 8 6 6 3 4 4 3 3 5 7 5 5 3 4 4 2 3 2 1 2 5 4 3 3 2 2 1 1 1 2 2 3 3 1 1 2 0 2 0 2 2 3 2 3 4 5 3 1 5 3 3 2 1 1 2 2 1 2 4 3 3 2 3 2 2 5 3 2 2 3 4 5 5 5 6 6 8
24 25 25 23 24 23 22 20 18 13 9 9 13 18 19 18 17 14 8 6 5 4 3 3 4 2 2 4 3 1 3 3 4 3 3 1 1 1 1 1 2 1 2 2 0 0 1 0 0 2 3 1 2 2 4 4 1 5 3 3 2 2 2 2 1 2 2 3 2 3 2 3 5 3 2 4 3 2 3 4 5 6 7 7 8 8 9
24 24 25 25 25 24 21 20 16 10 7 5 5 4 2 6 1 4 3 3 4 2 2 2 2 3 3 1 4 4 4 4 1 3 0 3 2 3 1 2 1 1 2 3 2 1 2 1 1 1 2 2 0 2 3 2 4 4 4 3 3 3 3 4 3 3 3 3 1 2 4 4 6 4 4 4 4 3 3 4 7 8 8 8 9 9 10
25 25 26 26 24 22 20 12 3 4 3 3 2 4 6 4 11 4 4 4 3 2 2 2 2 4 4 1 2 3 3 4 1 3 2 2 0 3 1 2 2 2 2 1 1 0 1 1 3 3 1 3 1 2 3 3 5 5 5 5 5 5 5 5 5 4 3 1 1 1 3 5 6 5 5 5 4 5 6 6 8 9 9 9 10 11 11
25 26 26 25 25 15 3 4 3 3 4 1 3 5 11 15 9 3 4 5 4 4 2 1 1 3 2 3 2 2 3 1 0 2 0 1 2 1 2 2 1 3 1 2 0 1 0 2 2 1 2 2 3 4 2 3 1 5 6 6 7 7 6 4 5 7 4 2 1 2 5 5 5 5 5 5 5 5 6 7 8 9 9 9 11 11 11
25 25 27 22 9 4 3 1 2 3 4 6 11 15 16 9 2 3 4 4 4 3 4 3 4 5 4 3 1 0 3 1 2 2 2 1 2 1 1 2 1 1 1 2 1 0 2 0 2 3 2 3 2 3 4 2 2 2 4 5 6 5 3 2 6 8 7 5 5 5 5 5 5 4 4 5 5 6 7 8 9 9 10 11 10 10 11
25 24 10 4 3 2 2 1 2 5 11 10 7 5 4 4 2 3 2 3 3 3 3 4 6 4 0 3 3 3 3 0 1 2 1 1 2 2 0 1 2 1 1 0 3 2 1 1 2 2 2 2 3 3 3 2 0 1 1 4 6 5 4 5 8 9 9 8 7 7 6 7 6 6 5 6 7 8 7 7 7 8 8 9 9 9 11
16 7 3 2 2 1 2 4 6 12 8 3 3 2 2 2 2 2 3 2 2 3 3 5 6 5 6 6 6 2 4 3 2 2 1 3 1 1 0 1 2 1 1 2 2 1 2 2 1 2 2 2 1 4 1 1 0 1 2 2 5 5 4 6 8 9 8 7 7 10 9 8 8 7 5 6 6 6 6 7 7 8 8 9 9 10 11
6 6 3 3 2 3 5 5 8 7 3 2 2 2 2 2 3 1 2 2 3 2 2 4 4 4 5 6 5 2 4 4 3 1 1 1 1 1 1 1 1 1 1 1 2 1 2 1 0 2 0 3 4 3 1 1 1 3 3 4 6 5 5 5 7 4 2 3 3 7 6 4 6 7 7 7 7 7 8 7 7 7 8 9 10 11 12
6 6 4 2 5 6 6 9 6 2 2 2 2 1 1 2 2 0 1 3 3 1 1 3 1 4 4 3 4 3 4 2 2 2 2 1 1 2 2 0 1 2 1 0 1 1 1 1 1 2 2 4 4 2 1 2 4 4 3 4 5 4 5 5 5 3 3 3 3 5 4 4 6 6 6 7 7 7 7 7 7 7 8 10 11 10 10
8 8 8 10 10 10 8 3 2 1 1 1 1 2 1 0 1 2 2 2 2 1 4 2 3 3 1 1 2 3 1 1 2 1 2 1 1 1 1 0 1 2 0 2 1 1 1 1 1 0 3 3 2 1 2 4 5 5 5 5 5 4 5 5 4 4 2 2 4 5 4 5 7 6 6 7 7 7 7 7 7 8 9 9 9 9 10
15 11 5 5 3 2 2 1 2 1 1 2 2 1 2 2 2 2 2 1 1 2 2 1 2 3 1 2 4 4 1 1 2 2 2 0 1 1 1 0 1 1 1 1 1 1 2 1 0 2 4 3 1 3 3 3 5 5 5 5 4 3 4 4 3 3 1 1 4 4 4 6 7 5 5 6 6 7 7 7 7 7 8 9 9 9 11
5 3 3 1 2 0 1 1 1 1 1 1 2 4 3 3 3 2 2 2 1 2 2 2 1 4 1 3 2 2 2 3 2 2 0 0 1 1 1 2 0 2 0 1 1 1 1 1 2 4 4 3 0 4 5 5 5 5 5 5 4 5 4 4 3 3 3 2 3 3 3 5 6 5 5 5 7 8 7 7 7 8 9 9 9 10 11
3 2 1 1 0 1 0 1 1 2 3 3 2 2 2 4 3 2 2 2 2 2 2 1 2 3 4 2 1 2 2 0 2 2 1 1 2 1 2 0 1 1 1 2 1 0 0 1 2 1 2 4 2 4 6 6 6 6 6 6 6 6 6 5 4 3 3 4 5 5 5 5 6 7 6 5 6 6 7 7 7 8 9 9 9 10 10
2 2 2 1 2 2 1 1 1 4 1 0 0 2 1 3 3 4 4 2 2 2 2 3 3 3 3 1 2 1 1 1 2 1 0 1 2 1 1 1 1 2 1 2 1 0 0 2 3 3 4 4 3 2 6 6 6 5 7 7 7 7 7 6 5 4 4 4 5 5 5 5 6 7 6 5 5 6 7 8 8 8 9 9 10 10 11
2 1 1 1 1 1 1 1 1 1 2 1 2 2 3 3 4 3 3 3 3 4 4 3 4 4 3 0 1 2 2 1 2 1 1 2 1 2 0 1 1 1 1 2 1 1 0 2 2 3 3 3 2 3 6 6 6 7 7 6 8 8 7 6 6 6 5 5 6 6 5 6 7 7 6 6 6 6 6 7 9 9 9 9 9 9 10
2 1 2 2 1 0 2 1 1 2 1 2 2 2 2 1 2 2 3 3 4 4 4 4 3 3 4 2 2 2 0 1 2 2 0 0 1 1 1 1 2 1 1 1 1 1 1 2 2 3 2 1 1 3 6 7 7 8 7 6 8 8 8 7 7 6 6 7 7 6 6 6 7 7 7 7 7 6 6 7 8 9 9 9 9 10 11
2 2 1 1 0 0 0 2 2 3 3 2 1 0 1 1 0 3 4 4 4 4 3 3 2 2 2 1 2 2 3 2 3 2 2 2 2 2 2 2 2 2 2 2 1 2 1 3 3 2 2 1 0 1 4 7 8 8 8 8 8 9 8 8 8 7 7 6 6 6 6 6 7 8 8 7 8 7 7 7 8 7 8 9 9 10 10
2 2 2 2 2 2 1 1 3 2 4 3 2 1 2 1 1 3 4 5 5 4 1 2 2 2 1 0 2 1 2 2 2 1 2 4 3 2 2 2 2 2 2 3 2 1 0 1 1 1 1 1 0 2 3 5 7 8 7 8 8 8 8 9 9 9 8 7 7 7 7 6 7 8 9 8 8 7 7 7 8 8 8 9 9 10 10
1 2 1 3 2 1 1 2 3 3 3 2 1 2 3 2 3 3 5 5 6 4 3 1 1 1 2 1 2 2 1 1 1 4 3 3 2 3 3 4 3 2 1 2 1 1 1 1 1 2 1 0 1 1 2 4 7 8 8 8 8 8 9 10 10 9 9 8 8 7 7 7 7 8 8 8 8 7 7 7 8 8 9 8 9 10 10
1 2 1 1 1 2 2 2 2 2 2 2 2 2 2 3 3 4 4 5 5 3 1 1 1 1 1 2 1 1 1 1 2 1 3 2 1 3 4 4 1 2 1 2 2 2 1 0 1 2 3 2 1 1 2 3 5 7 8 9 8 9 9 9 10 10 9 9 9 8 8 8 7 8 9 9 8 7 8 7 7 8 8 8 8 9 10
Wind_Direction
355 357 358 359 357 356 1 360 5 5 324 318 354 290 246 254 322 74 156 161 183 224 258 248 242 247 281 297 263 262 260 256 275 278 255 229 202 216 226 202 174 190 178 157 161 166 154 169 175 160 174 159 153 161 184 178 173 188 174 162 145 0 193 154 172 169 188 132 139 200 254 216 207 211 217 205 210 204 220 221 219 210 201 204 202 227 125
356 356 359 1 356 355 358 2 4 1 343 347 322 272 270 274 261 166 132 178 211 266 272 264 247 283 298 291 286 276 271 272 279 258 235 188 174 174 146 171 265 145 183 161 160 159 138 176 162 170 171 166 123 168 180 181 181 192 174 184 151 184 197 182 159 167 180 193 183 201 208 227 220 209 208 217 212 206 217 238 302 222 214 209 217 227 197
357 359 358 0 355 350 354 356 360 358 344 312 328 300 334 271 249 244 150 199 206 241 275 280 291 284 294 302 290 309 253 239 243 269 279 263 205 185 147 99 145 167 176 165 161 165 155 153 165 157 177 137 143 172 189 183 185 196 166 197 155 234 170 200 179 180 184 190 195 195 190 202 211 223 212 213 214 206 191 208 206 232 221 214 217 223 91
358 359 357 358 356 354 352 354 353 349 350 321 301 311 274 208 288 135 198 182 216 256 265 275 265 279 288 283 298 288 308 161 204 226 246 239 242 261 316 256 232 162 177 166 157 154 155 156 151 167 165 128 152 181 188 188 189 188 167 192 173 217 184 214 209 201 206 204 202 173 175 181 205 204 217 209 216 219 213 222 226 225 216 230 216 240 128
357 359 1 358 357 354 352 353 354 350 344 337 316 272 252 327 257 204 248 187 236 252 246 248 236 251 324 311 350 343 26 61 112 218 239 137 173 170 219 172 175 163 171 160 157 157 154 143 155 157 152 147 135 169 183 183 194 142 154 192 185 205 199 210 249 306 23 100 154 143 190 192 198 198 202 208 207 215 216 217 223 212 228 221 208 207 195
358 360 360 360 358 354 352 352 352 351 347 334 294 291 232 262 146 182 224 274 275 254 248 226 244 251 267 280 307 345 25 39 37 341 279 292 251 203 147 217 190 170 171 168 156 158 157 161 150 150 148 128 136 151 177 185 153 142 184 189 204 198 209 186 223 215 100 47 76 136 194 212 202 208 206 208 209 210 214 218 223 218 217 230 158 182 217
357 358 359 358 358 356 352 351 352 349 348 337 312 308 305 255 304 298 170 268 281 246 281 293 276 274 213 249 290 340 360 33 23 328 332 202 132 245 144 172 176 179 167 172 158 162 153 168 153 147 152 147 149 150 160 185 172 186 184 187 198 209 215 180 209 214 197 115 98 91 197 204 225 220 215 211 212 213 215 217 219 222 222 235 222 184 216
356 358 359 359 360 358 354 351 351 350 345 330 322 7 324 357 353 327 333 270 286 298 300 311 294 17 50 294 22 334 357 14 350 338 16 66 82 353 181 137 192 184 179 176 175 165 165 164 157 156 150 143 164 150 171 157 183 186 181 175 154 227 143 127 194 214 195 148 138 191 227 226 217 221 229 222 218 214 213 219 219 221 231 216 232 220 229
356 357 358 357 358 358 357 353 352 347 346 323 6 320 313 315 300 305 311 315 314 318 340 340 352 24 19 9 11 4 16 2 354 359 320 319 349 357 337 7 164 179 177 188 179 181 173 169 170 157 159 158 149 153 170 168 168 182 174 184 154 218 150 188 204 218 205 169 208 197 216 249 248 241 216 214 218 219 211 217 199 206 211 213 221 224 227
355 355 356 357 357 357 358 354 350 349 341 348 329 300 341 302 271 254 280 290 321 329 350 6 290 45 12 340 347 353 340 319 347 30 48 335 289 286 312 330 244 156 172 162 103 32 334 202 98 174 177 177 164 158 150 170 172 174 180 176 183 196 193 192 199 213 217 162 196 208 228 242 242 234 224 213 211 222 216 212 201 212 216 213 205 221 228
354 354 355 355 356 355 356 355 351 354 348 354 341 317 325 316 320 330 321 295 288 325 318 22 31 41 328 7 352 8 333 10 358 2 338 282 342 298 300 317 164 128 114 71 53 53 67 65 162 154 180 185 172 162 156 172 177 176 176 173 189 187 204 201 194 211 206 162 174 182 232 230 228 59 14 328 216 191 198 201 201 210 211 224 225 236 199
354 353 352 354 354 353 354 354 355 355 353 342 326 302 295 307 292 279 303 322 358 346 21 40 15 15 2 341 338 316 326 303 248 261 311 316 313 306 289 286 219 116 40 318 175 103 109 143 147 159 163 162 164 159 170 173 170 183 178 183 177 187 194 216 185 211 207 169 183 218 230 231 70 101 64 26 14 230 219 217 210 206 208 212 189 161 157
352 351 351 352 353 353 354 354 353 354 355 344 328 319 324 318 283 309 312 291 337 6 9 17 30 39 22 348 333 346 282 262 252 245 250 276 299 50 25 15 49 55 336 310 201 228 169 148 155 158 155 147 145 144 153 172 169 183 191 186 179 185 194 196 188 219 182 186 201 222 231 74 122 118 138 91 128 176 124 250 219 208 207 204 214 202 187
349 350 349 350 352 353 354 353 353 354 355 350 335 332 319 308 301 303 310 322 11 28 344 28 34 19 11 9 346 288 298 294 46 148 138 176 276 26 37 22 15 310 288 281 222 177 136 144 141 150 152 157 149 158 119 112 152 198 199 195 198 187 192 186 201 201 216 210 213 226 71 187 162 176 195 186 185 177 186 206 220 201 201 197 202 184 171
348 349 348 349 350 352 353 353 353 354 355 351 336 335 334 335 301 300 321 302 320 350 30 31 3 351 349 33 3 46 11 356 80 88 95 208 49 44 20 10 1 307 239 256 145 160 145 139 139 143 147 171 174 168 158 173 128 119 224 217 216 211 207 182 210 188 231 224 218 219 221 243 208 195 111 178 36 186 214 277 259 160 185 189 193 182 167
347 348 348 347 348 350 351 352 353 353 356 352 342 342 341 350 305 277 304 314 306 12 26 4 347 340 333 7 21 20 10 21 0 255 117 58 33 24 20 6 6 313 288 279 33 101 138 157 139 149 150 169 140 145 181 150 154 143 204 207 205 227 252 219 210 182 193 228 240 220 231 225 219 132 139 160 161 165 187 209 239 172 180 182 187 177 167
345 347 347 346 346 347 348 350 351 354 355 356 345 339 343 7 340 317 310 279 261 301 325 342 333 311 350 40 39 32 12 20 3 21 35 25 348 319 336 351 227 287 334 297 76 205 155 138 148 134 97 145 162 147 143 167 149 148 149 197 203 210 214 215 229 220 197 218 224 234 226 212 111 122 133 147 153 151 203 222 218 152 179 175 180 176 169
343 344 346 345 345 345 347 348 350 353 354 354 345 330 330 14 346 314 279 305 324 297 360 353 341 5 24 3 355 9 339 17 70 101 57 33 343 347 341 330 28 121 273 291 295 129 125 147 152 158 132 65 2 173 166 157 153 158 169 178 183 194 206 213 223 221 202 209 232 244 212 97 105 126 137 138 160 201 220 221 153 109 176 178 182 180 173
341 342 344 345 344 345 346 347 349 351 353 354 346 328 35 4 352 320 300 301 315 303 359 348 315 301 319 306 284 317 353 336 320 19 43 76 17 313 291 287 296 57 15 58 101 126 142 108 34 104 156 159 216 151 138 184 153 150 157 171 181 188 196 209 220 225 222 207 231 233 248 77 116 134 139 156 167 196 220 72 35 173 166 172 182 175 173
338 340 342 343 341 342 343 345 347 349 351 354 351 329 311 326 355 336 309 325 320 293 294 316 330 326 341 328 349 353 2 187 19 34 36 34 65 4 292 225 167 251 121 319 97 2 250 129 78 311 196 142 111 20 187 66 41 148 177 172 199 176 187 196 200 213 231 218 227 226 231 157 167 132 142 228 231 228 62 80 65 16 157 164 170 178 168
336 338 339 340 340 340 342 343 345 347 349 352 350 332 325 40 344 340 300 287 303 304 350 97 318 297 303 300 298 297 292 333 352 15 39 46 57 335 63 55 13 354 42 359 56 83 341 106 130 71 10 329 115 231 134 120 163 110 333 207 250 126 214 203 203 200 221 210 218 227 34 115 161 158 173 186 25 16 2 323 110 114 161 169 169 178 175
334 336 336 338 339 340 341 341 342 345 346 349 346 327 304 337 335 341 305 272 257 254 290 323 308 281 278 275 274 271 277 283 299 322 317 357 161 250 344 281 21 7 35 320 177 158 180 62 102 193 167 137 213 230 28 200 194 128 157 243 209 163 260 348 256 171 228 251 237 79 78 150 167 80 62 24 54 356 359 357 40 140 161 179 183 174 176
332 333 334 336 337 338 338 337 339 341 343 346 345 335 313 311 320 337 300 280 252 252 270 268 266 261 256 241 236 259 263 267 284 272 252 293 334 111 355 20 49 7 352 347 359 348 25 266 113 343 126 236 296 155 208 266 313 141 192 180 351 48 23 290 281 195 2 298 74 67 106 167 168 124 50 45 31 359 332 331 7 91 160 179 189 174 174
330 331 331 333 333 334 335 334 335 337 339 341 339 323 310 308 308 317 287 245 260 305 234 208 273 32 5 357 348 178 227 228 242 259 262 262 306 3 140 82 1 261 70 48 13 327 7 338 16 314 262 104 253 229 215 193 227 135 234 186 192 134 168 215 239 70 200 215 138 187 97 124 197 185 154 81 219 261 317 311 297 115 177 188 191 180 178
328 328 329 330 330 331 332 333 334 334 336 336 333 315 293 281 271 318 311 327 313 317 328 347 67 26 351 330 305 250 226 311 259 241 218 224 247 310 1 41 357 330 338 353 294 259 234 266 193 204 226 96 279 241 78 269 134 294 240 180 175 172 174 242 239 212 231 32 77 71 116 231 197 207 188 204 163 169 205 293 324 255 192 188 173 166 164
326 326 327 328 327 328 329 330 331 331 332 332 329 314 301 285 299 291 268 259 257 281 310 338 19 80 271 337 34 16 300 271 282 252 229 229 239 271 305 304 267 164 285 292 280 276 297 255 282 311 284 125 274 286 67 22 26 89 273 31 34 84 162 231 185 225 232 211 210 165 204 213 203 198 210 204 162 168 163 196 189 183 181 171 163 179 170
323 323 324 325 326 326 326 327 328 330 329 329 324 304 283 278 265 248 261 328 309 227 253 325 325 324 352 335 13 329 305 293 261 236 222 231 243 246 250 261 278 251 242 211 204 288 250 283 268 254 314 46 262 349 351 205 247 222 239 127 161 187 229 156 204 236 235 251 184 162 229 231 170 183 197 196 176 186 170 173 189 188 179 169 168 170 173
321 321 322 324 324 325 324 325 326 328 329 326 313 295 277 268 255 240 245 263 305 323 318 304 313 322 309 248 355 326 12 331 308 251 244 211 229 230 240 248 255 260 231 222 214 200 222 231 167 66 79 109 222 174 218 17 282 253 252 185 178 233 223 190 225 243 259 65 43 314 307 329 56 44 156 186 180 184 191 195 194 187 182 176 168 165 169
319 319 319 320 321 321 322 322 323 326 329 326 310 295 247 218 207 191 226 249 275 300 291 279 274 268 325 349 320 322 118 315 314 263 223 218 206 204 226 329 288 308 261 248 280 287 262 60 38 286 84 31 288 155 172 211 213 244 68 102 181 64 8 280 345 349 80 36 27 326 281 323 47 37 158 170 173 191 195 192 187 188 182 180 182 176 171
317 316 316 317 318 318 318 318 319 322 328 324 314 275 239 143 177 160 118 350 330 306 297 327 323 9 336 283 318 331 339 346 336 206 211 222 210 253 358 340 23 250 279 296 283 236 71 83 92 88 97 298 276 166 239 248 252 138 97 139 142 143 108 301 354 326 21 24 11 57 29 48 72 101 149 135 132 206 195 172 174 174 176 181 183 180 181
316 314 315 315 315 314 312 313 315 319 318 305 297 258 233 196 133 145 63 336 331 294 288 273 280 300 291 115 263 321 333 342 336 334 153 354 129 72 85 233 132 266 253 187 218 64 229 170 156 120 121 47 314 254 258 243 250 184 119 145 168 187 197 96 93 6 6 64 106 95 83 91 106 134 132 149 143 158 148 145 143 173 151 174 181 177 177
315 313 312 312 311 310 307 308 310 311 295 271 241 277 18 12 13 323 337 326 316 256 265 295 302 294 339 279 358 347 309 324 277 228 169 267 183 61 126 330 28 25 345 8 75 190 89 44 302 144 198 99 259 269 262 251 260 78 118 154 156 178 150 186 174 140 134 154 163 160 172 139 202 323 85 140 143 145 158 143 150 140 147 177 162 174 172
314 312 312 310 308 306 305 303 303 296 275 278 292 299 291 279 268 267 275 286 261 260 293 280 280 317 277 9 328 129 317 255 212 262 141 21 17 288 172 154 181 147 73 247 157 24 88 218 170 188 96 159 245 260 262 258 355 88 119 122 141 158 164 119 129 143 168 174 277 309 323 192 153 130 105 126 135 136 143 149 145 147 159 162 161 164 168
314 313 310 308 305 305 304 303 297 280 245 244 246 223 87 41 81 186 233 231 279 290 255 269 275 267 292 359 260 104 338 333 17 339 133 106 3 269 22 214 179 232 38 313 101 174 144 237 238 82 149 188 271 278 258 254 98 139 149 151 138 149 153 162 176 179 172 175 248 327 342 78 105 112 131 129 128 137 155 152 155 159 161 162 161 162 161
314 311 308 305 305 305 304 294 210 188 207 208 236 112 142 8 359 291 243 252 250 199 206 229 260 288 291 284 276 88 1 280 30 32 322 85 42 316 319 264 161 244 98 298 200 314 125 56 12 255 202 112 227 243 259 237 153 155 166 162 165 161 165 174 185 179 164 162 271 26 140 142 142 146 149 153 152 160 168 171 173 170 166 167 163 159 158
312 310 307 306 302 297 245 202 216 178 192 147 72 22 334 320 310 272 221 235 277 313 264 235 239 263 292 296 326 72 314 250 111 238 214 319 189 129 285 293 211 84 3 283 335 192 187 56 262 239 115 250 244 257 330 4 179 172 185 182 171 185 180 198 165 162 152 146 115 140 156 167 170 147 146 156 163 169 177 175 174 176 171 165 164 159 162
312 309 306 297 280 190 212 105 86 17 28 328 304 302 293 286 189 168 168 201 203 236 283 294 260 258 261 309 318 271 303 249 30 278 149 263 356 45 270 248 47 70 223 204 189 19 84 81 281 273 246 256 305 28 352 332 307 227 191 177 171 178 163 161 150 152 151 151 156 169 173 169 152 155 161 163 169 173 176 179 177 176 171 167 161 164 160
309 301 297 290 225 219 165 110 59 359 323 299 286 258 171 203 205 178 185 215 162 188 219 239 256 272 357 262 262 73 288 54 317 310 149 66 259 147 291 302 55 270 245 147 81 22 329 215 247 297 301 320 322 304 291 274 260 41 194 183 171 169 161 151 157 162 158 160 175 180 179 182 175 172 176 172 173 175 180 173 176 182 169 161 159 155 149
298 303 290 309 297 16 24 34 360 333 309 247 238 236 187 193 213 201 199 165 152 215 202 230 247 243 245 242 253 144 293 323 299 255 261 88 304 111 271 257 115 261 256 207 130 268 242 180 195 244 237 100 345 87 63 319 264 199 178 173 163 160 166 172 182 184 190 202 198 183 184 184 182 173 174 172 171 173 172 172 167 167 162 156 152 151 152
349 354 358 339 355 9 328 331 334 310 249 214 178 238 201 176 217 198 143 199 208 190 172 226 236 265 261 266 285 226 130 230 259 258 350 115 62 318 81 284 87 260 274 331 80 248 294 305 117 250 153 42 42 86 60 70 213 151 165 155 161 161 182 185 189 201 234 319 258 184 191 193 177 171 170 172 174 175 173 171 166 161 162 156 149 154 154
355 338 319 334 337 321 319 319 309 235 239 198 168 216 242 198 224 347 209 227 235 146 213 297 172 222 180 238 249 259 111 280 327 329 288 297 70 272 244 255 59 281 264 37 91 249 257 274 268 281 31 25 16 60 79 120 120 128 130 147 153 163 179 187 188 195 230 229 178 169 184 190 172 170 171 172 174 172 168 164 165 163 155 146 155 156 144
325 303 295 298 296 290 295 256 230 213 212 260 230 192 197 296 127 215 247 252 183 170 159 213 229 252 117 226 270 290 128 54 314 265 261 203 130 285 26 99 166 273 321 65 23 241 259 262 268 63 54 37 73 129 158 136 135 138 137 147 153 162 173 179 179 182 217 236 183 169 167 182 173 169 169 172 174 171 165 163 161 159 160 152 148 142 143
286 272 277 280 290 254 260 244 162 251 205 173 199 194 184 214 202 225 179 166 26 264 87 232 293 306 273 243 229 225 301 71 257 199 244 37 111 240 245 191 235 239 77 123 253 260 262 240 238 55 38 42 61 178 177 146 142 136 134 144 152 159 172 170 179 162 156 192 170 166 168 176 176 169 168 173 169 166 164 162 160 158 155 154 153 146 145
302 261 240 236 273 196 216 153 143 210 242 252 191 207 184 210 184 183 206 143 134 188 39 303 27 309 155 144 299 135 187 190 224 258 265 84 249 188 198 229 223 59 119 222 242 273 347 352 319 2 1 10 131 188 176 165 162 146 147 148 147 157 161 152 148 155 143 136 141 143 159 165 154 150 168 173 174 173 168 164 162 157 156 159 157 156 154
302 241 242 230 247 139 133 358 203 211 230 187 218 247 194 221 173 194 87 56 301 30 25 279 315 289 295 66 240 236 273 50 126 240 179 190 222 216 250 330 72 210 264 281 277 236 182 212 150 165 19 11 40 179 175 176 173 175 158 155 163 169 173 173 169 175 162 170 161 158 161 160 168 167 172 175 182 174 167 163 161 163 163 163 159 159 160
331 346 324 314 9 289 255 242 152 209 168 334 254 319 319 42 51 87 62 356 324 330 325 351 300 277 273 233 293 40 176 229 205 191 235 223 243 183 74 31 264 262 253 245 250 265 53 40 30 30 30 7 16 172 176 175 175 170 164 173 168 173 179 181 181 187 179 168 164 173 164 169 170 170 172 175 176 179 176 163 164 171 166 166 166 165 161
251 236 266 319 290 168 231 235 153 28 8 25 38 12 15 40 35 36 36 347 325 349 313 295 278 299 300 340 239 202 209 235 238 113 242 221 205 91 262 256 228 214 242 257 248 232 203 80 43 41 20 4 36 162 179 171 177 183 192 183 172 175 175 185 186 188 176 174 172 172 170 175 176 177 169 169 173 179 171 167 170 171 173 176 171 165 164
295 330 294 219 168 240 191 123 65 126 93 32 56 31 30 329 256 119 59 359 328 306 304 300 257 193 217 173 250 286 4 201 229 174 263 6 106 216 174 212 235 216 245 265 242 113 34 35 13 20 24 18 341 169 178 178 181 191 195 187 185 182 183 185 186 182 171 175 175 180 176 177 178 174 180 176 167 167 169 175 176 179 181 177 170 169 171
315 290 277 326 330 248 63 80 225 163 120 113 82 354 18 249 74 50 17 337 318 327 325 285 328 309 256 130 248 221 226 168 228 176 152 216 216 186 188 211 201 236 192 231 66 77 19 34 44 15 359 331 271 228 190 188 185 191 196 194 189 186 186 187 185 177 178 180 183 182 183 178 182 185 187 181 179 172 172 174 178 181 185 179 172 173 176
248 205 218 238 216 189 228 215 254 194 149 154 176 109 16 326 16 66 8 331 326 307 256 219 238 264 318 271 233 209 246 192 230 146 205 210 202 192 220 237 201 243 119 161 200 187 59 42 24 330 54 31 217 233 192 189 189 198 197 194 190 188 188 187 184 178 183 185 187 190 184 178 189 189 189 187 187 169 165 172 180 185 186 184 178 177 180
209 284 292 335 304 56 14 222 205 201 199 173 57 48 6 356 3 10 19 323 310 295 242 278 26 283 249 211 248 220 193 70 234 214 217 216 184 201 211 234 219 202 156 110 67 45 27 18 321 324 350 342 117 213 218 202 194 197 196 196 192 192 190 190 188 183 187 189 188 186 190 193 194 194 189 195 183 172 172 172 182 190 189 186 185 185 182
231 226 198 149 235 283 301 329 303 308 343 360 343 37 352 327 9 355 343 308 299 290 358 12 283 247 240 233 262 347 355 237 242 221 225 215 157 225 217 243 256 143 150 140 118 124 143 328 1 311 307 326 315 223 207 212 202 200 196 195 196 195 192 191 191 189 189 188 188 191 196 196 191 194 193 193 184 185 186 180 181 188 187 189 188 191 189